sat.trackr.live / text

‹ back to catalog

DMSP 5D-3 F16 (USA 172)

NORAD 28054 · 2003-048A

PAYLOAD ACTIVE UNKNOWN

§ Identity

Operator
Country
US
Launch date
2003-10-18
Launch site
AFWTR
Launch vehicle
Mass (kg)
RCS (m²)
4.30

Purposes: earth_obs

External: N2YO · Heavens-Above · Gunter

§ Orbital elements

Epoch: 2026-05-25T04:09:23.500224Z

Period
101.80 min
Inclination
98.9901°
Eccentricity
0.0006534
Mean motion
14.14480137 rev/d
Perigee alt
839.4 km
Apogee alt
848.8 km
Semi-major
7,222.2 km
B*
2.6475e-5
RAAN
168.8481°
Arg perigee
203.7987°
Mean anomaly
207.0186°
Rev number
16,623

§ Raw data

DMSP 5D-3 F16 (USA 172)1 28054U 03048A   26145.17318866  .00000005  00000+0  26475-4 0  99942 28054  98.9901 168.8481 0006534 203.7987 207.0186 14.14480137166232

JSON: /api/v1/satellites/28054 · /tle

For live sub-satellite position, see the globe view (requires WebGL).

§ Visibility from observer

Set your observer location to see the next 7 days of passes ≥ 10°. The values pass through the URL so the page stays shareable.

No JS? Fill the form by hand. The geolocation button needs JavaScript.

§ Radio — SatNOGS DB

ModeDescriptionDownlinkUplink
BPSK S-band telemetry 2.208 GHz
FM S-band telemetry 2.213 GHz

2 transmitters · refreshed weekly from db.satnogs.org